Volver al catálogo

THORAD AGENA D DEB

ActivoLEO
NORAD 4161·DEBRIS·🇺🇸 United States

Lanzado Sep 30, 1969 desde Vandenberg Space Force Base

Loading…

Próximos Pases (próximas 24 horas)

TLE

ActualizadoSource: Space-Track

Época: Sep 14, 2026, 07:04 UTC

1 04161U 69082AD  26257.29488191  .00000009  00000-0  41733-4 0  9992
2 04161  70.0215  19.7964 0060299 172.6097 187.5914 13.99422943907178

Sigue THORAD AGENA D DEB en tiempo real con AllMySat

Download on the App Store